Flag for U.S.A. Weather past 2 weeks in Visalia, California, U.S.A.

Now
86 °F

Sunny.


Feels Like: 83 °F
Forecast: 62 / 98 °F
Wind: 7 mph from Northwest

Location: Visalia Municipal

Current Time: May 29, 2015 at 8:36:27 PM

Latest Report: May 29, 2015 at 7:55 PM


Visibility: 10 mi

Pressure: 29.81 "Hg

Humidity: 27%

Dew point: 48 °F

Location of VisaliaLocation

Historic Weather in Visalia — Graph

°F

Visalia temperature yesterday

Maximum temperature yesterday: 91 °F (at 5:15 PM)
Minimum temperature yesterday: 55 °F (at 5:55 AM)
Average temperature yesterday: 74 °F

Past Weeks' High & Low Weather Summary

 TemperatureHumidityPressure
High95 °F (May 29, 4:55 PM)77% (May 14, 9:35 PM)30.08 "Hg (May 14, 9:35 PM)
Low50 °F (May 16, 4:35 AM)19% (May 29, 5:15 PM)29.76 "Hg (May 14, 7:15 PM)
Average68 °F52%29.93 "Hg
* Reported May 14 7:15 PM — May 29 7:15 PM, Visalia, Weather by CustomWeather, © 2015

Note: Actual official high and low records may vary slightly from our data, if they occured in-between our weather recording intervals... More about our weather records

Advertising

Visalia weather history for previous 24 hours

 ConditionsComfort  
Time TempWeatherWind HumidityBarometerVisibility
7:15 PM
Fri, May 29
90 °FSunny.8 mph24%29.81 "Hg10 mi
6:55 PM91 °FSunny.8 mph23%29.80 "Hg10 mi
6:35 PM91 °FSunny.10 mph23%29.80 "Hg10 mi
6:15 PM93 °FSunny.10 mph23%29.80 "Hg10 mi
5:55 PM93 °FSunny.8 mph21%29.80 "Hg10 mi
5:35 PM95 °FSunny.8 mph19%29.80 "Hg10 mi
5:15 PM95 °FSunny.5 mph19%29.80 "Hg10 mi
4:55 PM95 °FSunny.8 mph20%29.81 "Hg10 mi
4:35 PM93 °FSunny.10 mph20%29.81 "Hg10 mi
4:15 PM93 °FSunny.7 mph21%29.82 "Hg10 mi
3:55 PM93 °FSunny.9 mph21%29.83 "Hg10 mi
3:35 PM93 °FSunny.8 mph20%29.83 "Hg10 mi
3:15 PM93 °FSunny.9 mph20%29.84 "Hg10 mi
2:55 PM93 °FSunny.6 mph21%29.85 "Hg8 mi
2:35 PM91 °FSunny.7 mph21%29.87 "Hg9 mi
2:15 PM91 °FSunny.5 mph21%29.88 "Hg5 mi
1:35 PM90 °FSunny.8 mph26%29.87 "Hg10 mi
1:15 PM88 °FSunny.7 mph29%29.88 "Hg10 mi
12:55 PM88 °FSunny.6 mph29%29.88 "Hg10 mi
12:35 PM88 °FSunny.No wind29%29.89 "Hg10 mi
12:15 PM86 °FSunny.6 mph33%29.92 "Hg8 mi
11:55 AM82 °FSunny.3 mph40%29.92 "Hg10 mi
11:35 AM82 °FSunny.5 mph40%29.91 "Hg10 mi
11:15 AM81 °FSunny.3 mph45%29.92 "Hg7 mi
10:55 AM79 °FSunny.3 mph45%29.92 "Hg10 mi
10:35 AM77 °FSunny.5 mph47%29.93 "Hg10 mi
10:15 AM75 °FSunny.5 mph50%29.93 "Hg10 mi
9:55 AM75 °FSunny.6 mph50%29.93 "Hg10 mi
9:35 AM73 °FSunny.6 mph53%29.93 "Hg10 mi
9:15 AM72 °FSunny.7 mph57%29.93 "Hg10 mi
8:55 AM70 °FSunny.7 mph60%29.93 "Hg10 mi
8:35 AM68 °FSunny.7 mph60%29.93 "Hg10 mi
8:15 AM66 °FSunny.3 mph64%29.93 "Hg10 mi
7:55 AM64 °FSunny.3 mph64%29.93 "Hg10 mi
7:35 AM63 °FSunny.No wind68%29.93 "Hg6 mi
7:15 AM61 °FSunny.No wind72%29.93 "Hg10 mi
6:55 AM61 °FSunny.No wind72%29.92 "Hg9 mi
6:35 AM57 °FClear.3 mph72%29.92 "Hg9 mi
6:15 AM57 °FClear.No wind67%29.92 "Hg9 mi
5:55 AM57 °FClear.No wind72%29.91 "Hg10 mi
5:15 AM61 °FClear.No wind63%29.90 "Hg10 mi
4:55 AM61 °FClear.3 mph63%29.89 "Hg10 mi
4:35 AM63 °FClear.No wind64%29.89 "Hg10 mi
4:15 AM61 °FClear.3 mph63%29.89 "Hg10 mi
3:55 AM63 °FClear.5 mph59%29.88 "Hg10 mi
3:35 AM63 °FClear.5 mph64%29.89 "Hg10 mi
3:15 AM63 °FClear.5 mph59%29.89 "Hg10 mi
2:55 AM64 °FClear.5 mph56%29.89 "Hg10 mi
2:35 AM64 °FClear.5 mph60%29.89 "Hg10 mi
2:15 AM64 °FClear.6 mph56%29.90 "Hg10 mi
1:55 AM66 °FClear.6 mph56%29.89 "Hg10 mi
1:35 AM66 °FClear.8 mph56%29.89 "Hg10 mi
1:15 AM66 °FClear.7 mph52%29.89 "Hg10 mi
12:55 AM68 °FClear.6 mph56%29.90 "Hg10 mi
12:35 AM68 °FClear.6 mph49%29.91 "Hg10 mi
12:15 AM70 °FClear.3 mph50%29.91 "Hg10 mi
11:55 PM
Thu, May 28
70 °FClear.6 mph50%29.91 "Hg10 mi
11:35 PM72 °FClear.6 mph47%29.91 "Hg10 mi
11:15 PM73 °FClear.8 mph44%29.91 "Hg10 mi
10:55 PM75 °FClear.8 mph44%29.91 "Hg10 mi
10:35 PM73 °FClear.8 mph41%29.91 "Hg10 mi
10:15 PM75 °FClear.8 mph39%29.91 "Hg10 mi
9:55 PM73 °FClear.9 mph38%29.91 "Hg10 mi
9:35 PM75 °FClear.7 mph39%29.89 "Hg10 mi
9:15 PM75 °FClear.6 mph39%29.88 "Hg10 mi
8:35 PM79 °FSunny.7 mph34%29.87 "Hg10 mi
8:15 PM81 °FSunny.6 mph32%29.86 "Hg10 mi
Weather by CustomWeather, © 2015

See weather overviewHow to use our weather pages